Location: Alvediston
(51.0078°N, 2.0364°W)
Time: 15:28:58
(UTC+00:00)

Gbstr 26 Del rocket - Pass Details

Date: 27 February 2020
Orbit: 492 x 1264 km, 51.8° (Epoch: 27 March)

Event Time Altitude Azimuth Distance (km) Brightness Sun altitude
Rises 20:39:24 0° 261° (W) 2,756 7.3 -27.8°
Reaches altitude 10° 20:41:27 10° 262° (W) 1,934 6.3 -28.1°
Enters shadow 20:44:41 51° 267° (W) 825 3.9 -28.5°
